Showing default

OPS 4682 (SNAPSHOT), 1314

Orbit data source: Space-Track

OPS 4682 (SNAPSHOT), 1314 is an American payload satellite in LEO that was launched on Sat, 03 Apr 1965 UTC via an ATLAS SLV-3 AGENA D launch vehicle from the Air Force Western Test Range (AFWTR). Payload-class satellites include a variety of spacecraft equipped with specific instruments for various scientific and technological missions. These include communications satellites like Starlink; space stations such as the ISS; scientific satellites like the Hubble; Earth observation satellites from companies like Planet Labs, Umbra, and HawkEye 360; GPS; miniature CubeSats for education and research; and military/defense satellites.

Loading next visibility...
Identifier
1314, 1965-027A
Orbit
LEO
Country
Flag of USUS
Related business
Manufacturer
RCA/East Windsor
Mission
Spacecraft
Bus & Motor
SNAP 10 REACTOR, Unknown motor
Mass
2,386 kg wet, 422 kg dry
Launch date (UTC)
1965-04-03 (61 years ago)
Launch vehicle
ATLAS SLV-3 AGENA D
Launch site
Air Force Western Test Range (AFWTR)
Object type
Payload
Rocket body
Debris
Shape & HBR
Unknown shape, 2.3 m
Radar Cross Section
Large (>1 m²)

Expand to show TLE details & history
Last TLE update: 8 hours ago

TLE from 8 hours ago
0 OPS 4682 (SNAPSHOT)
1  1314U 65027A   26198.74885580  .00000008  00000-0  22760-5 0  9990
2  1314  90.2399   6.9062 0029437 208.4480 162.3506 12.91806162634975
Epoch: 2026-07-17T17:58Z
TLE epoch observation values (Epoch: 2026-07-17T17:58:21.141Z)
Latitude
10.85158°
Longitude
161.70086°
Altitude
1,318.016 km
Speed
7.189 km/s
True Right ascension
00h 27m 26s
True Declination
10° 47' 34"
Sunlit
Object was in daylight at epoch
Visualization orbit readout
Latitude
Unknown
Longitude
Unknown
Altitude
Unknown
Speed
Unknown
Apparent Right ascension
Unknown
Apparent Declination
Unknown
Sunlit
N/A
Visualization observer readout
Local Sidereal Time
15:07:09
Azimuth
Unknown
Elevation
Unknown
Doppler factor
Unknown
Orbital elements
Apogee altitude
1,314.076 km
Perigee altitude
1,268.922 km
Semi-major axis
7,669.636 km
Eccentricity
0.00294
Inclination
90.2399°
RAAN
6.9062°
Arg. of periapsis
208.448°
True anomaly
162.45252°
Mean anomaly
162.3506°
Eccentric anomaly
162.40159°
Mean motion
3.23133 °/min
Orbital period
111.41 mins
BSTAR
0.000002276
Loading maneuver chart data...
Computing Atmospheric mass density...
Loading historical data...
Loading historical data...
Loading historical data...
Loading historical data...
Loading historical data...
Loading historical data...
Loading historical data...

Documentation

Showing up to 5 results
|